Elmira, NY

6:20 AM EDT on May 20, 2018 (GMT -0400)
Elmira-Corning Regional

Weather History for KELM - August, 2012

Change the Weather History Date:

Thursday, August 30, 2012

  Actual Average Record
Temperature  
Mean Temperature 64 °F -  
Max Temperature 82 °F 80 °F 100 °F (1953)
Min Temperature 46 °F 54 °F 33 °F (1965)
Degree Days  
Heating Degree Days 2    
Growing Degree Days 14 (Base 50)    
Moisture  
Dew Point 50 °F    
Average Humidity 82    
Maximum Humidity 100    
Minimum Humidity 30    
Precipitation  
Precipitation 0.00 in - - ()
Sea Level Pressure  
Sea Level Pressure 30.09 in    
Wind  
Wind Speed 2 mph (SW)    
Max Wind Speed 9 mph    
Max Gust Speed -    
Visibility 5 miles    
Events Fog    
Averages and records for this station are not official NWS values.
T = Trace of Precipitation, MM = Missing Value Source: NWS Daily Summary

Daily Weather History Graph

Daily Weather History Graph

Search for Another Location

Airport or City:

Astronomy

Aug. 30, 2012 Rise Set
Actual Time 6:31 AM EDT 7:43 PM EDT
Civil Twilight 6:02 AM EDT 8:12 PM EDT
Nautical Twilight 5:27 AM EDT 8:47 PM EDT
Astronomical Twilight 4:51 AM EDT 9:23 PM EDT
Moon 6:56 PM EDT (8/30) 5:30 AM EDT (8/30)
Length of Visible Light 14h 10m
Length of Day
13h 12m
Waxing Gibbous, 99% of the Moon is Illuminated
Aug 30
Waxing Gibbous
Aug 31
Full
Sep 8
Last Quarter
Sep 15
New
Sep 22
First Quarter

Hourly Weather History & Observations

Time (EDT) Temp. Heat Index Dew Point Humidity Pressure Visibility Wind Dir Wind Speed Gust Speed Precip Events Conditions
12:53 AM 48.9 °F - 46.9 °F 93% 30.08 in 10.0 mi Calm Calm - N/A   Clear
1:53 AM 48.9 °F - 46.9 °F 93% 30.09 in 8.0 mi Calm Calm - N/A   Clear
2:19 AM 48.2 °F - 46.4 °F 93% 30.08 in 2.5 mi Calm Calm - N/A   Clear
2:27 AM 46.4 °F - 46.4 °F 100% 30.08 in 1.0 mi Calm Calm - N/A   Clear
2:34 AM 46.4 °F - 44.6 °F 93% 30.08 in 0.5 mi Calm Calm - N/A Fog Fog
2:43 AM 46.4 °F - 46.4 °F 100% 30.08 in 2.0 mi Calm Calm - N/A   Clear
2:50 AM 46.4 °F - 44.6 °F 93% 30.08 in 3.0 mi Calm Calm - N/A   Partly Cloudy
2:53 AM 46.9 °F - 46.0 °F 97% 30.08 in 0.8 mi Calm Calm - N/A   Mist
3:19 AM 46.4 °F - 46.4 °F 100% 30.08 in 1.0 mi Calm Calm - N/A   Mist
3:24 AM 46.4 °F - 44.6 °F 93% 30.08 in 2.5 mi Calm Calm - N/A   Clear
3:32 AM 46.4 °F - 44.6 °F 93% 30.08 in 8.0 mi Calm Calm - N/A   Clear
3:40 AM 46.4 °F - 44.6 °F 93% 30.08 in 10.0 mi Calm Calm - N/A   Partly Cloudy
3:53 AM 46.0 °F - 45.0 °F 96% 30.08 in 8.0 mi Calm Calm - N/A   Partly Cloudy
4:23 AM 50.0 °F - 48.2 °F 94% 30.08 in 3.0 mi West 3.5 mph - N/A   Mostly Cloudy
4:27 AM 50.0 °F - 48.2 °F 94% 30.08 in 1.8 mi Calm Calm - N/A   Mostly Cloudy
4:40 AM 50.0 °F - 48.2 °F 94% 30.08 in 0.2 mi SW 6.9 mph - N/A Fog Fog
4:48 AM 50.0 °F - 48.2 °F 94% 30.08 in 0.2 mi SW 5.8 mph - N/A Fog Fog
4:53 AM 50.0 °F - 48.9 °F 96% 30.08 in 0.2 mi WSW 4.6 mph - N/A Fog Fog
4:59 AM 51.8 °F - 50.0 °F 94% 30.08 in 0.5 mi WSW 4.6 mph - N/A Fog Fog
5:10 AM 50.0 °F - 48.2 °F 94% 30.08 in 1.0 mi WSW 5.8 mph - N/A   Mist
5:17 AM 50.0 °F - 48.2 °F 94% 30.09 in 0.8 mi West 3.5 mph - N/A   Mist
5:26 AM 50.0 °F - 48.2 °F 94% 30.09 in 1.5 mi WSW 4.6 mph - N/A   Overcast
5:46 AM 51.8 °F - 48.2 °F 88% 30.10 in 2.5 mi West 4.6 mph - N/A   Overcast
5:53 AM 50.0 °F - 48.9 °F 96% 30.09 in 0.5 mi WNW 3.5 mph - N/A Fog Fog
6:53 AM 51.1 °F - 50.0 °F 96% 30.12 in 0.5 mi WSW 4.6 mph - N/A Fog Fog
7:29 AM 51.8 °F - 50.0 °F 94% 30.12 in 1.0 mi SW 6.9 mph - N/A   Overcast
7:53 AM 51.1 °F - 50.0 °F 96% 30.13 in 1.0 mi SW 4.6 mph - N/A   Overcast
8:26 AM 51.8 °F - 50.0 °F 94% 30.13 in 1.5 mi South 4.6 mph - N/A   Scattered Clouds
8:53 AM 54.0 °F - 51.1 °F 90% 30.14 in 2.0 mi Calm Calm - N/A   Partly Cloudy
9:08 AM 55.4 °F - 51.8 °F 88% 30.13 in 10.0 mi SSW 3.5 mph - N/A   Clear
9:53 AM 60.1 °F - 53.1 °F 78% 30.14 in 10.0 mi SW 4.6 mph - N/A   Clear
10:53 AM 68.0 °F - 55.0 °F 63% 30.13 in 10.0 mi SW 6.9 mph - N/A   Clear
11:53 AM 73.0 °F - 55.9 °F 55% 30.11 in 10.0 mi SW 8.1 mph - N/A   Clear
12:53 PM 75.9 °F - 55.0 °F 48% 30.10 in 10.0 mi Variable 5.8 mph - N/A   Clear
1:53 PM 78.1 °F - 54.0 °F 43% 30.09 in 10.0 mi SW 9.2 mph - N/A   Clear
2:53 PM 79.0 °F - 55.0 °F 44% 30.08 in 10.0 mi SW 9.2 mph - N/A   Clear
3:53 PM 80.1 °F - 51.1 °F 36% 30.06 in 10.0 mi WSW 8.1 mph - N/A   Clear
4:53 PM 81.0 °F - 46.9 °F 30% 30.05 in 10.0 mi SSW 6.9 mph - N/A   Clear
5:53 PM 81.0 °F 80.4 °F 53.1 °F 38% 30.05 in 10.0 mi SSW 8.1 mph - N/A   Clear
6:53 PM 78.1 °F - 55.0 °F 45% 30.04 in 10.0 mi SW 4.6 mph - N/A   Clear
7:53 PM 68.0 °F - 55.4 °F 64% 30.04 in 10.0 mi Calm Calm - N/A   Clear
8:53 PM 62.1 °F - 55.0 °F 78% 30.06 in 10.0 mi Calm Calm - N/A   Clear
9:53 PM 57.9 °F - 53.1 °F 84% 30.06 in 10.0 mi Calm Calm - N/A   Clear
10:53 PM 57.0 °F - 53.1 °F 87% 30.06 in 10.0 mi Calm Calm - N/A   Clear
11:53 PM 55.9 °F - 52.0 °F 87% 30.06 in 10.0 mi WSW 3.5 mph - N/A   Clear